This is the latest recevied weather packets stored in our database for station/object WA4IKQ. If no packets are shown the sender has not sent any weather packets the latest 10 day(s).
| Time | Temp. | Humidity | Pressure | Rain* | Wind** | Luminosity | Snow |
|---|---|---|---|---|---|---|---|
| 1778098315 | 34.44° C | 33% | 1015 hPa | 0 mm | 0.89 m/s, 184° | - | - |
| 1778098254 | 34.44° C | 33% | 1015 hPa | 0 mm | 0.89 m/s, 184° | - | - |
| 1778098084 | 34.44° C | 33% | 1015.1 hPa | 0 mm | 3.58 m/s, 149° | - | - |
| 1778097952 | 34.44° C | 33% | 1015.1 hPa | 0 mm | 3.58 m/s, 149° | - | - |
| 1778097759 | 34.44° C | 34% | 1015.1 hPa | 0 mm | 0.89 m/s, 65° | - | - |
| 1778097494 | 34.44° C | 33% | 1015.1 hPa | 0 mm | 0.89 m/s, 41° | - | - |
| 1778097353 | 34.44° C | 33% | 1015.1 hPa | 0 mm | 0.89 m/s, 41° | - | - |
| 1778097179 | 34.44° C | 33% | 1015.1 hPa | 0 mm | 0.89 m/s, 91° | - | - |
| 1778097066 | 34.44° C | 33% | 1015.1 hPa | 0 mm | 0.89 m/s, 91° | - | - |
| 1778096527 | 34.44° C | 33% | 1015.3 hPa | 0 mm | 2.24 m/s, 15° | - | - |
| 1778096451 | 34.44° C | 33% | 1015.3 hPa | 0 mm | 2.24 m/s, 15° | - | - |
| 1778096250 | 34.44° C | 33% | 1015.3 hPa | 0 mm | 3.58 m/s, 145° | - | - |
| 1778096190 | 34.44° C | 33% | 1015.3 hPa | 0 mm | 3.58 m/s, 145° | - | - |
| 1778096151 | 34.44° C | 33% | 1015.3 hPa | 0 mm | 3.58 m/s, 145° | - | - |
| 1778095964 | 34.44° C | 34% | 1015.4 hPa | 0 mm | 0.89 m/s, 194° | - | - |
| 1778095854 | 34.44° C | 34% | 1015.4 hPa | 0 mm | 0.89 m/s, 194° | - | - |
| 1778095700 | 34.44° C | 34% | 1015.4 hPa | 0 mm | 2.24 m/s, 179° | - | - |
| 1778095551 | 34.44° C | 34% | 1015.4 hPa | 0 mm | 2.24 m/s, 179° | - | - |
| 1778095331 | 34.44° C | 35% | 1015.4 hPa | 0 mm | 0.89 m/s, 184° | - | - |
| 1778094710 | 33.89° C | 37% | 1015.5 hPa | 0 mm | 2.24 m/s, 104° | - | - |
| 1778094654 | 33.89° C | 37% | 1015.5 hPa | 0 mm | 2.24 m/s, 104° | - | - |
| 1778094395 | 33.89° C | 36% | 1015.5 hPa | 0 mm | 1.34 m/s, 271° | - | - |
| 1778094350 | 33.89° C | 36% | 1015.5 hPa | 0 mm | 1.34 m/s, 271° | - | - |
| 1778094181 | 33.89° C | 37% | 1015.6 hPa | 0 mm | 0.89 m/s, 273° | - | - |
| 1778094050 | 33.89° C | 37% | 1015.6 hPa | 0 mm | 0.89 m/s, 273° | - | - |
* Rain latest hour (hover to see other rain measurements)
** Current wind speed in m/s (hover to see current wind gust speed)